(349) Dembowska(349) Dembowska Epoch 2008 Nov. 30.0 TT = JDT 2454800.5 Goffin M 113.66341 (2000.0) P Q n 0.19696804 Peri. 347.48679 +0.93865314 -0.33612998 a 2.9255367 Node 32.48533 +0.32748997 +0.79871747 e 0.0883605 Incl. 8.25525 +0.10807687 +0.49906617 P 5.00 H 5.93 G 0.37 U 0 From 1414 observations at 72 oppositions, 1892-1996, mean residual 0".53.An explanation of the orbital elements is available.
These orbital elements are also available in forms suitable for loading into a number of popular planetarium-type software programs.
Personalized ephemerides for this object (and others) can be generated using the MPES.
Date TT R. A. (2000) Decl. Delta r Elong. Phase V 2009 01 01 11 20.83 +14 03.6 2.526 3.071 114.8 16.9 11.0 2009 01 06 11 21.43 +14 10.3 2.466 3.074 119.7 16.1 11.0 2009 01 11 11 21.47 +14 20.1 2.409 3.078 124.7 15.2 10.9 2009 01 16 11 20.93 +14 33.0 2.356 3.081 129.9 14.2 10.8 2009 01 21 11 19.81 +14 48.6 2.307 3.084 135.2 13.0 10.8 2009 01 26 11 18.10 +15 06.8 2.263 3.088 140.6 11.7 10.7 2009 01 31 11 15.82 +15 27.0 2.224 3.091 146.1 10.3 10.6 2009 02 05 11 13.03 +15 48.6 2.191 3.094 151.5 8.7 10.5 2009 02 10 11 09.76 +16 11.1 2.165 3.097 157.0 7.2 10.4 2009 02 15 11 06.10 +16 33.8 2.145 3.100 162.2 5.6 10.4 2009 02 20 11 02.11 +16 56.0 2.133 3.103 166.8 4.2 10.3 2009 02 25 10 57.90 +17 16.9 2.127 3.106 169.8 3.2 10.3 2009 03 02 10 53.57 +17 35.8 2.129 3.109 169.7 3.3 10.3 2009 03 07 10 49.26 +17 52.2 2.139 3.112 166.5 4.3 10.3 2009 03 12 10 45.06 +18 05.6 2.156 3.115 161.9 5.7 10.4 2009 03 17 10 41.07 +18 15.5 2.179 3.118 156.7 7.3 10.5 2009 03 22 10 37.40 +18 21.8 2.210 3.121 151.3 8.8 10.6 2009 03 27 10 34.13 +18 24.4 2.246 3.123 146.0 10.3 10.6 2009 04 01 10 31.31 +18 23.3 2.289 3.126 140.6 11.7 10.7 2009 04 06 10 29.01 +18 18.4 2.336 3.129 135.4 13.0 10.8 2009 04 11 10 27.24 +18 10.1 2.389 3.131 130.3 14.1 10.9 2009 04 16 10 26.02 +17 58.4 2.445 3.134 125.3 15.2 11.0 2009 04 21 10 25.36 +17 43.7 2.505 3.136 120.4 16.0 11.1 2009 04 26 10 25.24 +17 26.2 2.568 3.139 115.7 16.8 11.1 2009 05 01 10 25.66 +17 05.9 2.634 3.141 111.1 17.4 11.2 2009 05 06 10 26.59 +16 43.3 2.702 3.143 106.6 17.9 11.3 2009 05 11 10 28.00 +16 18.4 2.771 3.145 102.3 18.3 11.3 2009 05 16 10 29.86 +15 51.4 2.841 3.148 98.1 18.5 11.4 2009 05 21 10 32.14 +15 22.6 2.913 3.150 94.0 18.7 11.5